This demonstration page uses our WeatherBlox Daily Observations layout. Learn more.

41.55636, -103.73856

Hourly Observations for May 12, 2018

Temp ( °F °C ) Dew Point ( °F °C ) Humidity (%) Winds ( mph kmh ) Pressure ( in mb ) Visibility ( mi km ) Precip ( " mm )
12:29 am 00:29 Cloudy 46 8 N/A N/A NE 13 20 29.94 1014 10 16.09344 0.001 0.001
12:53 am 00:53 Cloudy with Haze 46 8 N/A N/A NNE 12 19 29.94 1014 5 8.04672 0.001 0.001
1:17 am 01:17 Cloudy with Light Rain 46 8 N/A N/A NNE 14 22 29.94 1014 4 6.437376 0.001 0.001
1:53 am 01:53 Cloudy 46 8 N/A N/A NNE 15 24 29.88 1012 10 16.09344 0.001 0.001
2:53 am 02:53 Cloudy with Light Rain 46 8 N/A N/A NE 14 22 29.88 1012 10 16.09344 0.001 0.001
3:53 am 03:53 Cloudy 46 8 N/A N/A NE 13 20 29.91 1013 8 12.874752 0.01 0.254
4:53 am 04:53 Cloudy 45 7 N/A N/A NE 9 15 29.94 1014 7 11.265408 0 0
5:24 am 05:24 Cloudy with Light Rain 45 7 N/A N/A WSW 7 11 30 1016 9 14.484096 0 0
5:33 am 05:33 Cloudy with Light Rain 45 7 N/A N/A N 3 6 30 1016 8 12.874752 0.001 0.001
5:53 am 05:53 Cloudy with Light Rain 45 7 N/A N/A NE 7 11 29.97 1015 6 9.656064 0.001 0.001
6:20 am 06:20 Cloudy with Light Rain 46 8 N/A N/A NNE 3 6 29.97 1015 4 6.437376 0 0
6:53 am 06:53 Cloudy with Light Rain 46 7.8 46 7.8 100 100 ENE 5 7 29.97 1015 7 11.265408 0.02 0.508
7:19 am 07:19 Cloudy 46 7.8 46 7.8 100 100 ENE 7 11 30.03 1017 10 16.09344 0.001 0.001
7:44 am 07:44 Cloudy 46 8 46 8 100 100 ENE 7 11 30.03 1017 10 16.09344 0 0
7:53 am 07:53 Cloudy 46 7.8 46 7.8 100 100 NE 8 13 30 1016 10 16.09344 0.001 0.001
8:03 am 08:03 Cloudy 46 7.8 46 7.8 100 100 NE 8 13 30.03 1017 10 16.09344 0 0
8:53 am 08:53 Cloudy 47 8.3 46 7.8 97 97 NE 8 13 30 1016 10 16.09344 0 0
9:27 am 09:27 Cloudy 48 8.9 47 8.3 96 96 NE 6 9 30.03 1017 10 16.09344 0 0
9:53 am 09:53 Cloudy 47 8.3 46 7.8 97 97 ENE 8 13 30 1016 10 16.09344 0 0
10:53 am 10:53 Cloudy with Mist and Fog 47 8.3 47 8.3 100 100 E 12 19 30.03 1017 3 4.828032 0 0
11:00 am 11:00 Cloudy with Mist and Fog 46 8 46 8 100 100 E 10 17 30.06 1018 2.5 4.02336 0 0
11:17 am 11:17 Cloudy with Mist and Fog 48 8.9 48 8.9 100 100 E 8 13 30.03 1017 3 4.828032 0 0
11:24 am 11:24 Cloudy with Mist and Fog 48 9 48 9 100 100 E 10 17 30.03 1017 4 6.437376 0 0
11:46 am 11:46 Cloudy 48 9 48 9 100 100 E 9 15 30.03 1017 7 11.265408 0 0
11:53 am 11:53 Cloudy 49 9.4 48 8.9 97 97 ENE 9 15 30 1016 7 11.265408 0 0
12:18 pm 12:18 Cloudy 49 9.4 48 8.9 97 97 ENE 8 13 30.03 1017 10 16.09344 0 0
12:53 pm 12:53 Cloudy 50 10 48 8.9 93 93 ENE 8 13 29.97 1015 10 16.09344 0 0
1:53 pm 13:53 Cloudy 53 11.7 49 9.4 86 86 ENE 7 11 29.97 1015 10 16.09344 0 0
2:53 pm 14:53 Cloudy 54 12.2 50 10 87 87 E 9 15 29.97 1015 10 16.09344 0 0
3:38 pm 15:38 Cloudy 54 12.2 50 10 87 87 E 10 17 29.91 1013 10 16.09344 0 0
3:50 pm 15:50 Cloudy 54 12 50 10 88 88 ENE 9 15 29.91 1013 10 16.09344 0 0
3:53 pm 15:53 Cloudy 55 12.8 50 10 83 83 E 10 17 29.94 1014 10 16.09344 0 0
4:03 pm 16:03 Cloudy 54 12.2 50 10 87 87 ENE 12 19 29.91 1013 10 16.09344 0 0
4:53 pm 16:53 Cloudy 54 12.2 50 10 87 87 ENE 14 22 29.94 1014 10 16.09344 0 0
5:02 pm 17:02 Cloudy 54 12 50 10 88 88 NE 13 20 29.91 1013 10 16.09344 0 0
5:53 pm 17:53 Cloudy 53 11.7 51 10.6 93 93 ENE 13 20 29.97 1015 10 16.09344 0 0
6:53 pm 18:53 Cloudy with Mist and Fog 50 10 50 10 100 100 NE 13 20 29.97 1015 2.5 4.02336 0 0
7:00 pm 19:00 Cloudy with Mist and Fog 50 10 50 10 100 100 ENE 14 22 29.94 1014 4 6.437376 0 0
7:53 pm 19:53 Cloudy 50 10 49 9.4 96 96 ENE 13 20 29.97 1015 10 16.09344 0 0
8:53 pm 20:53 Cloudy with Mist and Fog 49 9.4 49 9.4 100 100 ENE 10 17 30 1016 6 9.656064 0 0
9:02 pm 21:02 Cloudy 48 9 48 9 100 100 ENE 9 15 30.03 1017 8 12.874752 0 0
9:17 pm 21:17 Cloudy 49 9.4 49 9.4 100 100 NE 7 11 30.03 1017 10 16.09344 0 0
9:20 pm 21:20 Cloudy 48 9 48 9 100 100 NE 8 13 30.03 1017 10 16.09344 0 0
9:29 pm 21:29 Cloudy 49 9.4 49 9.4 100 100 NE 10 17 30.03 1017 10 16.09344 0 0
9:45 pm 21:45 Cloudy 49 9.4 48 8.9 97 97 NE 10 17 30.03 1017 10 16.09344 0 0
9:53 pm 21:53 Cloudy 48 8.9 48 8.9 100 100 ENE 13 20 30.03 1017 10 16.09344 0 0
10:00 pm 22:00 Cloudy 48 9 48 9 100 100 E 8 13 30.06 1018 10 16.09344 0 0
10:29 pm 22:29 Cloudy 48 8.9 47 8.3 96 96 N 5 7 30.06 1018 10 16.09344 0 0
10:53 pm 22:53 Cloudy 48 8.9 47 8.3 96 96 E 5 7 30.06 1018 10 16.09344 0.001 0.001
11:22 pm 23:22 Cloudy 48 9 46 8 94 94 E 8 13 30.03 1017 10 16.09344 0 0
11:53 pm 23:53 Cloudy with Light Thunderstorms 47 8.3 47 8.3 100 100 E 12 19 30.03 1017 10 16.09344 0.001 0.001

Powered by AerisWeather